Simultaneous Nadir Overpasses (SNOs) Predictions

Prediction of SNOs between GOES-16 and TERRA Satellite Orbit:

Table of predicted SNOs for the next 14.0 days since TLE Epoch: 7/6/2019
Index Date Time (GOES-16) GOES-16 Lat,Lon TERRA Lat,Lon Distance(km) Time Diff (sec)
1 07/07/2019 03:27:06 0.00, -75.20 0.13, -74.54 74.21 80
2 07/09/2019 03:14:54 0.01, -75.21 0.76, -71.58 411.69 80
3 07/09/2019 15:38:50 -0.01, -75.21 0.30, -76.75 173.89 80
4 07/11/2019 15:23:58 -0.01, -75.23 -0.33, -73.79 164.63 80
5 07/12/2019 03:48:02 0.00, -75.24 -0.78, -78.98 425.17 80
6 07/14/2019 03:35:50 0.00, -75.26 -0.14, -76.02 86.09 80
7 07/16/2019 03:20:58 0.01, -75.29 0.50, -73.07 253.44 80
8 07/16/2019 15:44:53 -0.00, -75.30 0.62, -78.22 331.76 80
9 07/18/2019 15:30:01 -0.01, -75.34 -0.02, -75.26 8.60 80




NCC Satellite Simultaneous Nadir Overpasses (SNOs) Prediction Service
